#timestamp,LO_Frequency,Hit,StdDev 
1514545215.3,286047002.5,N
1514545235.1,286047001.9,N
1514545236.0,286047001.9,N
1514545255.8,286046998.2,N
1514545275.7,286046999.4,N
1514545295.5,286047000.5,N
1514545315.3,286047000.2,N
1514545335.2,286046998.5,N
1514545355.0,286047000.8,N
1514545355.9,286047000.8,N
1514545375.8,286047002.2,N
1514545395.6,286047001.9,N
1514545415.4,286047000.9,N
1514545435.3,286046998.6,N
1514545455.1,286046996.5,N
1514545475.9,286046995.3,N
1514545495.7,286046994.3,N
1514545515.5,286046994.5,N
1514545535.4,286046995.4,N
1514545555.2,286046995.7,N
1514545575.0,286046997.3,N
1514545576.0,286046997.3,N
1514545595.8,286046999.2,N
1514545615.6,286046999.1,N
1514545635.5,286046996.8,N
1514545655.3,286046996.6,N
1514545675.1,286046999.1,N
1514545695.9,286046998.4,N
1514545715.7,286047000.8,N
1514545735.6,286047002.8,N
1514545755.4,286047001.1,N
1514545775.2,286047001.1,N
1514545795.1,286046998.1,N
1514545796.0,286046998.1,N
1514545815.8,286047001.0,N
1514545835.7,286047002.7,N
1514545855.5,286047003.9,N
1514545875.3,286047004.4,N
1514545895.2,286046999.8,N
1514545915.0,286046999.5,N
1514545915.9,286046999.5,N
1514545935.7,286046999.4,N
1514545955.6,286046998.7,N
1514545975.4,286046998.5,N
1514545995.3,286046998.3,N
1514546015.1,286046998.9,N
1514546035.8,286046996.5,N
1514546055.7,286046999.6,N
1514546075.5,286046995.2,N
1514546095.4,286046995.7,N
1514546115.2,286046996.2,N
1514546135.0,286046999.6,N
1514546135.9,286046999.6,N
1514546155.8,286046999.0,N
1514546175.6,286046999.0,N
1514546195.4,286046997.7,N
1514546215.3,286046994.6,N
1514546235.1,286046995.8,N
1514546255.9,286046998.9,N
1514546275.7,286047002.8,N
1514546295.5,286047002.1,N
1514546315.4,286047001.4,N
1514546335.2,286047005.6,N
1514546355.1,286047003.3,N
1514546356.0,286047003.3,N
1514546375.8,286047003.1,N
1514546395.6,286047002.0,N
1514546415.5,286047000.2,N
1514546435.3,286047002.5,N
1514546455.1,286047002.1,N
1514546475.9,286047002.2,N
1514546495.7,286047003.9,N
1514546515.6,286047003.5,N
1514546535.4,286047001.3,N
1514546555.2,286047002.2,N
1514546575.1,286047000.1,N
1514546576.0,286047000.1,N
1514546595.8,286047002.8,N
1514546615.7,286046999.0,N
1514546635.5,286046996.5,N
1514546655.3,286046997.0,N
1514546675.2,286046998.4,N
1514546695.0,286047000.2,N
1514546695.9,286047000.2,N
1514546715.8,286047001.3,N
1514546735.6,286047001.0,N
1514546755.4,286046998.6,N
1514546775.3,286046998.5,N
1514546795.1,286046998.7,N
1514546815.8,286046999.3,N
1514546835.7,286046998.8,N
1514546855.5,286046997.0,N
1514546875.4,286046995.0,N
1514546895.2,286046999.1,N
1514546915.0,286047002.6,N
1514546915.9,286047002.6,N
1514546935.8,286047001.0,N
1514546955.6,286047000.5,N
1514546975.5,286047000.4,N
1514546995.3,286046998.5,N
1514547015.1,286046998.3,N
1514547035.9,286046999.6,N
1514547055.7,286046996.7,N
1514547075.5,286047001.2,N
1514547095.4,286046997.2,N
1514547115.2,286046999.1,N
1514547135.1,286046998.5,N
1514547136.0,286046998.5,N
1514547155.8,286047002.8,N
1514547175.6,286047001.7,N
1514547195.5,286047002.6,N
1514547215.3,286047002.7,N
1514547235.2,286047002.3,N
1514547255.9,286047004.1,N
1514547275.7,286047002.6,N
1514547295.6,286046999.9,N
1514547315.4,286046998.6,N
1514547335.2,286046999.1,N
1514547355.1,286047001.2,N
1514547356.0,286047001.2,N
1514547375.8,286046999.3,N
1514547395.7,286046996.9,N
1514547415.5,286046996.5,N
1514547435.3,286046997.9,N
1514547455.2,286046999.2,N
1514547475.0,286046999.0,N
1514547475.9,286046999.0,N
1514547495.8,286046998.8,N
1514547515.6,286046998.2,N
1514547535.4,286046999.6,N
1514547555.3,286046997.0,N
1514547575.1,286046998.0,N
1514547595.9,286046995.9,N
1514547615.7,286046997.1,N
1514547635.5,286046999.2,N
1514547655.4,286046996.9,N
1514547675.2,286046999.0,N
1514547695.1,286046999.6,N
1514547696.0,286046999.6,N
1514547715.8,286046999.0,N
1514547735.6,286046999.5,N
1514547755.5,286046999.1,N
1514547775.3,286046999.2,N
1514547795.2,286046998.6,N
1514547815.9,286046998.0,N
1514547835.7,286046996.2,Y
1514547855.6,286046997.5,P
1514547875.4,286046999.5,N
1514547895.2,286047000.0,N
1514547915.1,286047001.7,N
1514547916.0,286047001.7,N
1514547935.8,286047001.5,N
1514547955.7,286047003.9,N
1514547975.5,286047003.6,N
1514547995.3,286047006.0,N
1514548015.2,286047005.8,N
1514548035.0,286047002.9,N
1514548035.9,286047002.9,N
1514548055.8,286047003.5,N
1514548075.6,286047003.8,N
1514548095.4,286046999.8,N
1514548115.3,286046998.2,N
1514548135.1,286046998.7,N
1514548155.9,286046998.7,N
1514548175.7,286047001.0,N
1514548195.5,286047002.2,N
1514548215.4,286047001.9,N
1514548235.2,286047003.9,N
1514548255.0,286047000.0,N
1514548255.9,286047000.0,N
1514548275.8,286047000.6,N
1514548295.6,286047002.7,N
1514548315.5,286047000.2,N
1514548335.3,286047000.8,N
1514548355.1,286046998.7,N
1514548375.9,286046999.6,N
1514548395.7,286046997.9,N
1514548415.5,286046996.1,N
1514548435.4,286046997.9,N
1514548455.2,286046996.6,N
1514548475.1,286046998.5,N
1514548476.0,286046998.5,N
1514548495.8,286047002.8,N
1514548515.6,286047001.8,N
1514548535.5,286047002.3,N
1514548555.3,286047001.6,N
1514548575.2,286047003.2,N
1514548595.9,286047003.7,N
1514548615.7,286046999.9,N
1514548635.6,286046999.3,N
1514548655.4,286046996.6,N
1514548675.2,286046997.9,N
1514548695.1,286046997.2,N
1514548696.0,286046997.2,N
1514548715.8,286046994.9,N
1514548735.7,286046997.6,N
1514548755.5,286046999.3,N
1514548775.3,286046999.2,N
1514548795.2,286046995.4,N
